Location: Les Coudrans
(46.1056°N, 1.1158°W)
Time: 02:06:56
(UTC+00:00)

DMSP B5D2-2 - Pass Details

Date: 30 June 2021
Orbit: 789 x 807 km, 98.3° (Epoch: 02 August)

Event Time Altitude Azimuth Distance (km) Brightness Sun altitude
Rises 20:35:37 0° 3° (N) 3,313 7.9 -5.7°
Reaches altitude 10° 20:38:20 10° 350° (N) 2,376 7.4 -6.0°
Maximum altitude 20:42:27 24° 298° (WNW) 1,591 6.8 -6.6°
Drops below altitude 10° 20:46:34 10° 246° (WSW) 2,356 6.8 -7.1°
Sets 20:49:15 0° 233° (SW) 3,278 7.4 -7.4°
